EW0199 Weather Reports


Display with metric or nautical units.
time (UTC)temp
F
wind
direction
speed
MPH
gust
MPH
rain 1hr
in
rain 24hr
in
rain mn
in
humidity
%
barometer
mb
20260505031322 51 320 4.0 9.0 0.00 0.00 0.00 46 998.2
20260505030823 51 320 3.0 9.0 0.00 0.00 0.00 46 998.1
20260505030347 51 317 4.0 11.0 0.00 0.00 0.00 46 998.1
20260505025342 52 328 4.0 12.0 0.00 0.00 0.00 46 997.9
20260505024909 52 18 4.0 12.0 0.00 0.00 0.00 45 997.8
20260505024409 53 305 4.0 11.0 0.00 0.00 0.00 44 997.7
20260505023826 53 309 5.0 10.0 0.00 0.00 0.00 43 997.7
20260505023349 53 315 3.0 10.0 0.00 0.00 0.00 43 997.5
20260505022851 53 344 3.0 10.0 0.00 0.00 0.00 43 997.5
20260505022353 54 281 4.0 12.0 0.00 0.00 0.00 42 997.4
20260505021916 54 305 4.0 12.0 0.00 0.00 0.00 42 997.2
20260505021417 54 293 4.0 13.0 0.00 0.00 0.00 41 997.3
20260505020839 55 327 7.0 13.0 0.00 0.00 0.00 41 997.1
20260505020349 55 282 6.0 10.0 0.00 0.00 0.00 40 997.0
20260505015854 55 302 5.0 14.0 0.00 0.00 0.00 40 996.9
20260505015401 56 314 9.0 14.0 0.00 0.00 0.00 40 996.8
20260505014911 56 312 5.0 14.0 0.00 0.00 0.00 40 996.6
20260505014418 56 311 7.0 20.0 0.00 0.00 0.00 40 996.5
20260505013843 57 288 9.0 20.0 0.00 0.00 0.00 40 996.3
20260505013406 57 306 6.0 10.0 0.00 0.00 0.00 40 996.0
20260505012851 57 312 5.0 17.0 0.00 0.00 0.00 39 995.9
20260505012353 58 347 7.0 17.0 0.00 0.00 0.00 39 995.7
20260505011901 58 312 5.0 20.0 0.00 0.00 0.00 39 995.6
20260505011326 59 324 5.0 13.0 0.00 0.00 0.00 39 995.5
20260505010848 59 296 6.0 14.0 0.00 0.00 0.00 37 995.4
20260505010413 60 300 7.0 14.0 0.00 0.00 0.00 36 995.2
20260505005835 60 316 8.0 19.0 0.00 0.00 0.00 31 995.1
20260505005358 61 283 9.0 21.0 0.00 0.00 0.00 31 994.8
20260505004922 61 302 9.0 21.0 0.00 0.00 0.00 31 994.8
20260505004324 61 345 9.0 21.0 0.00 0.00 0.00 31 994.6
20260505003846 62 310 6.0 18.0 0.00 0.00 0.00 34 994.4
20260505002844 62 271 5.0 14.0 0.00 0.00 0.00 33 994.2
20260505002408 62 328 5.0 14.0 0.00 0.00 0.00 32 994.1
20260505001918 63 298 6.0 15.0 0.00 0.00 0.00 32 994.0
20260505001442 63 311 8.0 19.0 0.00 0.00 0.00 31 993.9
20260505000909 63 302 7.0 20.0 0.00 0.00 0.00 31 993.8
20260505000326 63 293 10.0 16.0 0.00 0.00 0.00 31 993.8
20260504235826 63 262 7.0 20.0 0.00 0.00 0.00 31 993.7
20260504235336 63 281 10.0 20.0 0.00 0.00 0.00 31 993.6
20260504234844 63 302 10.0 20.0 0.00 0.00 0.00 31 993.5
20260504234407 64 317 11.0 20.0 0.00 0.00 0.00 31 993.8
20260504233823 64 316 8.0 14.0 0.00 0.00 0.00 31 993.4
20260504233345 64 299 5.0 14.0 0.00 0.00 0.00 32 993.6
20260504232345 65 318 7.0 17.0 0.00 0.00 0.00 31 993.5
20260504231343 65 303 6.0 16.0 0.00 0.00 0.00 32 993.5
20260504230342 66 326 8.0 18.0 0.00 0.00 0.00 32 993.5
20260504225908 66 326 7.0 19.0 0.00 0.00 0.00 32 993.5
20260504225326 66 299 9.0 19.0 0.00 0.00 0.00 32 993.4
20260504224848 66 243 7.0 15.0 0.00 0.00 0.00 32 993.3
20260504224415 66 318 6.0 12.0 0.00 0.00 0.00 32 993.3
20260504223917 66 314 7.0 16.0 0.00 0.00 0.00 31 993.2
20260504223339 66 312 8.0 21.0 0.00 0.00 0.00 31 993.3
20260504222842 66 254 10.0 21.0 0.00 0.00 0.00 30 993.3
20260504222404 66 264 9.0 18.0 0.00 0.00 0.00 30 993.3
20260504221906 66 267 10.0 24.0 0.00 0.00 0.00 30 993.3
20260504221409 66 213 9.0 24.0 0.00 0.00 0.00 30 993.2
20260504220832 66 278 6.0 16.0 0.00 0.00 0.00 30 993.2
20260504220355 67 290 7.0 22.0 0.00 0.00 0.00 29 993.1
20260504215904 67 283 9.0 23.0 0.00 0.00 0.00 28 993.0
20260504215323 67 309 10.0 23.0 0.00 0.00 0.00 28 992.9
20260504214844 67 313 8.0 23.0 0.00 0.00 0.00 28 992.6
20260504213847 68 246 10.0 17.0 0.00 0.00 0.00 28 992.6
20260504213415 68 219 7.0 16.0 0.00 0.00 0.00 28 992.6
20260504212842 69 65 6.0 14.0 0.00 0.00 0.00 28 992.5
20260504212403 69 278 4.0 15.0 0.00 0.00 0.00 29 992.3
20260504211824 70 219 7.0 20.0 0.00 0.00 0.00 28 992.3
20260504211345 70 243 7.0 22.0 0.00 0.00 0.00 27 992.2
20260504210345 70 305 10.0 20.0 0.00 0.00 0.00 27 991.9
20260504205342 71 260 4.0 20.0 0.00 0.00 0.00 29 991.9
20260504204343 71 286 6.0 15.0 0.00 0.00 0.00 29 991.7
20260504203343 70 314 7.0 22.0 0.00 0.00 0.00 28 991.8
20260504202345 71 326 9.0 22.0 0.00 0.00 0.00 27 991.8
20260504201912 71 299 8.0 22.0 0.00 0.00 0.00 26 991.7
20260504201328 71 253 9.0 26.0 0.00 0.00 0.00 26 992.0
20260504200851 71 306 15.0 25.0 0.00 0.00 0.00 24 991.9
20260504200420 71 285 12.0 24.0 0.00 0.00 0.00 26 992.1
20260504195842 71 288 7.0 29.0 0.00 0.00 0.00 26 991.7
20260504195410 71 264 10.0 29.0 0.00 0.00 0.00 24 991.6
20260504194837 70 314 10.0 27.0 0.00 0.00 0.00 24 991.8
20260504194402 71 298 11.0 21.0 0.00 0.00 0.00 24 991.8
20260504193929 72 295 10.0 20.0 0.00 0.00 0.00 24 991.8
20260504193330 72 260 7.0 15.0 0.00 0.00 0.00 29 991.8
20260504192855 71 274 7.0 17.0 0.00 0.00 0.00 32 991.6
20260504192359 71 290 7.0 21.0 0.00 0.00 0.00 34 991.6
20260504191823 71 293 12.0 23.0 0.00 0.00 0.00 33 991.6
20260504191347 71 316 8.0 21.0 0.00 0.00 0.00 35 991.5
20260504190916 71 281 11.0 23.0 0.00 0.00 0.00 34 991.5
20260504190344 71 13 11.0 23.0 0.00 0.00 0.00 34 991.6
20260504185906 72 269 10.0 20.0 0.00 0.00 0.00 34 991.6
20260504185412 72 310 9.0 19.0 0.00 0.00 0.00 33 991.4
20260504184936 72 283 7.0 22.0 0.00 0.00 0.00 35 991.4
20260504184325 72 286 5.0 17.0 0.00 0.00 0.00 35 991.4
20260504183849 72 275 8.0 17.0 0.00 0.00 0.00 36 991.5
20260504183416 71 288 8.0 17.0 0.00 0.00 0.00 36 991.4
20260504182942 71 278 5.0 25.0 0.00 0.00 0.00 36 991.4
20260504181901 71 298 11.0 25.0 0.00 0.00 0.00 35 991.3
20260504181403 72 302 7.0 17.0 0.00 0.00 0.00 36 991.4
20260504180343 72 283 9.0 20.0 0.00 0.00 0.00 36 991.4
20260504175341 71 304 10.0 21.0 0.00 0.00 0.00 36 991.1
20260504174904 71 321 8.0 20.0 0.00 0.00 0.00 37 991.0
20260504174332 71 285 10.0 21.0 0.00 0.00 0.00 36 991.3
20260504173859 72 272 10.0 21.0 0.00 0.00 0.00 36 991.2
20260504173428 72 300 9.0 21.0 0.00 0.00 0.00 36 991.2
20260504172825 72 264 7.0 22.0 0.00 0.00 0.00 37 991.4
20260504172345 72 234 10.0 22.0 0.00 0.00 0.00 36 991.4
20260504171913 71 281 12.0 20.0 0.00 0.00 0.00 37 991.3
20260504171331 71 253 4.0 20.0 0.00 0.00 0.00 39 991.3
20260504170852 71 285 9.0 20.0 0.00 0.00 0.00 39 991.3
20260504170414 71 282 5.0 18.0 0.00 0.00 0.00 39 991.2
20260504160348 70 316 13.0 25.0 0.00 0.00 0.00 38 991.5
20260504150850 70 171 5.0 22.0 0.00 0.00 0.00 34 991.3
20260504150332 70 230 5.0 14.0 0.00 0.00 0.00 35 991.3
20260504140836 61 150 2.0 11.0 0.00 0.00 0.00 47 992.4
20260504140356 61 282 1.0 7.0 0.00 0.00 0.00 49 992.6
20260504130338 49 144 0.0 3.0 0.00 0.00 0.00 72 993.8
20260504110335 34 344 0.0 0.0 0.00 0.00 0.00 95 995.7
20260504100348 33 343 0.0 0.0 0.00 0.02 0.00 95 996.9
20260504081909 35 343 0.0 0.0 0.00 0.02 0.00 92 998.3
20260504081330 35 344 0.0 0.0 0.00 0.02 0.00 91 998.4
20260504080853 35 343 0.0 0.0 0.00 0.02 0.00 92 998.4
20260504080332 35 343 0.0 0.0 0.00 0.02 0.00 91 998.4
20260504070405 36 344 0.0 0.0 0.00 0.02 0.00 89 999.5
20260504050337 41 343 0.0 0.0 0.00 0.02 0.00 81 1001.0
20260504045919 41 343 0.0 0.0 0.00 0.02 0.02 81 1001.0
20260504045342 41 343 0.0 0.0 0.00 0.02 0.02 81 1001.0
20260504044904 42 344 0.0 0.0 0.00 0.02 0.02 78 1001.0
20260504044325 42 344 0.0 0.0 0.00 0.02 0.02 75 1001.1
20260504043844 42 343 0.0 0.0 0.00 0.02 0.02 80 1001.1
20260504043353 43 343 0.0 0.0 0.00 0.02 0.02 79 1001.1
20260504042917 43 343 0.0 0.0 0.00 0.02 0.02 75 1001.2
20260504042338 43 343 0.0 0.0 0.00 0.02 0.02 73 1001.2
20260504041853 43 344 0.0 0.0 0.00 0.02 0.02 70 1001.2
20260504041354 44 344 0.0 0.0 0.00 0.02 0.02 71 1001.2
20260504040923 44 344 0.0 0.0 0.00 0.02 0.02 69 1001.3
20260504040344 45 344 0.0 0.0 0.00 0.02 0.02 70 1001.4
20260504035345 46 343 0.0 0.0 0.00 0.02 0.02 76 1001.4
20260504034854 46 344 0.0 0.0 0.00 0.02 0.02 66 1001.3
20260504034359 47 344 0.0 0.0 0.00 0.02 0.02 60 1001.4
20260504033919 48 344 0.0 0.0 0.00 0.02 0.02 59 1001.3
20260504033426 48 344 0.0 0.0 0.00 0.02 0.02 58 1001.4
20260504032824 49 344 0.0 0.0 0.00 0.02 0.02 57 1001.4
20260504032350 49 344 0.0 0.0 0.00 0.02 0.02 56 1001.3
20260504031909 50 344 0.0 0.0 0.00 0.02 0.02 55 1001.3